User: anonymous   Login
Location: San Martino di Castrozza
(46.2667°N, 11.8000°E)
Time: 02:26:19
(UTC+00:00)
Language:

CZ-2C R/B - Orbit

View from above orbital plane
View from above orbital plane
View from above satellite
View from above satellite

Ground track
Ground track

The orbit data is extracted from the following two-line orbital elements,

1 36089U 09061B   21169.43304086  .00000042  00000-0  22110-4 0  9995
2 36089  98.2038 138.3487 0080830 228.4758 244.2344 14.49861770613489
Epoch (UTC): 18 June 2021 10:23:34
Eccentricity: 0.0080830
inclination: 98.2038°
perigee height: 668 km
apogee height: 783 km
right ascension of ascending node: 138.3487°
argument of perigee: 228.4758°
revolutions per day: 14.49861770
mean anomaly at epoch: 244.2344°
orbit number at epoch: 61348

The dashed part of the orbit path shows where the satellite is in the earth's shadow,  

DLR